FW0443 Weather Reports


Display with metric or nautical units.
time (UTC)temp
F
wind
direction
speed
MPH
gust
MPH
rain 1hr
in
rain 24hr
in
rain mn
in
humidity
%
barometer
mb
20220816080208 81 45 3.0 3.0 0.00 0.00 0.00 23 992.6
20220816075307 81 45 1.0 2.0 0.00 0.00 0.00 24 992.6
20220816073305 81 34 2.0 2.0 0.00 0.00 0.00 23 992.6
20220816072314 81 45 1.0 2.0 0.00 0.00 0.00 23 992.6
20220816071308 81 45 1.0 1.0 0.00 0.00 0.00 23 992.6
20220816070205 81 45 1.0 1.0 0.00 0.00 0.00 23 992.6
20220816063213 80 45 1.0 2.0 0.00 0.00 0.00 23 993.0
20220816061210 82 90 1.0 2.0 0.00 0.00 0.00 23 993.0
20220816055311 82 45 1.0 1.0 0.00 0.00 0.00 24 993.0
20220816044510 84 135 0.0 1.0 0.00 0.00 0.00 23 993.0
20220816040512 84 90 0.0 0.0 0.00 0.00 0.00 22 992.6
20220816033712 86 270 2.0 2.0 0.00 0.00 0.00 21 992.6
20220816031809 87 225 0.0 0.0 0.00 0.00 0.00 16 993.0
20220816025812 90 270 1.0 1.0 0.00 0.00 0.00 15 992.6
20220816024813 90 270 1.0 1.0 0.00 0.00 0.00 15 993.0
20220816023812 92 270 2.0 2.0 0.00 0.00 0.00 14 993.0
20220816020909 95 270 1.0 2.0 0.00 0.00 0.00 14 993.0
20220816020009 95 270 1.0 2.0 0.00 0.00 0.00 14 993.0
20220816015027 95 270 2.0 4.0 0.00 0.00 0.00 14 993.0
20220816014110 95 268 2.0 7.0 0.00 0.00 0.00 13 993.0
20220816010212 98 270 1.0 4.0 0.00 0.00 0.00 12 993.3
20220816003409 98 270 3.0 5.0 0.00 0.00 0.00 11 993.3
20220816002412 98 309 1.0 2.0 0.00 0.00 0.00 13 993.3
20220816001413 98 270 1.0 3.0 0.00 0.00 0.00 13 993.3
20220815234611 97 267 2.0 4.0 0.00 0.00 0.00 12 993.3
20220815230809 97 263 2.0 5.0 0.00 0.00 0.00 13 993.7
20220815225809 97 269 2.0 5.0 0.00 0.00 0.00 14 994.0
20220815224812 97 218 1.0 2.0 0.00 0.00 0.00 14 994.0
20220815223812 96 270 2.0 4.0 0.00 0.00 0.00 13 994.0
20220815222910 96 295 2.0 6.0 0.00 0.00 0.00 14 994.0
20220815221011 96 337 1.0 2.0 0.00 0.00 0.00 14 994.4
20220815215109 95 246 1.0 3.0 0.00 0.00 0.00 14 994.4
20220815214115 96 270 2.0 8.0 0.00 0.00 0.00 15 994.4
20220815205209 95 269 4.0 8.0 0.00 0.00 0.00 15 994.8
20220815204210 95 267 2.0 6.0 0.00 0.00 0.00 15 994.8
20220815202211 93 270 3.0 5.0 0.00 0.00 0.00 16 994.8
20220815201310 93 268 2.0 5.0 0.00 0.00 0.00 15 994.8
20220815195311 93 332 1.0 3.0 0.00 0.00 0.00 16 994.8
20220815194311 92 270 2.0 4.0 0.00 0.00 0.00 16 995.1
20220815192410 91 263 2.0 4.0 0.00 0.00 0.00 18 995.1
20220815191414 90 270 2.0 4.0 0.00 0.00 0.00 19 995.1
20220815185509 89 227 1.0 2.0 0.00 0.00 0.00 22 995.4
20220815184511 89 270 2.0 4.0 0.00 0.00 0.00 23 995.4
20220815180807 88 268 3.0 6.0 0.00 0.00 0.00 25 995.4
20220815174810 89 234 2.0 5.0 0.00 0.00 0.00 22 995.4
20220815173813 88 180 0.0 2.0 0.00 0.00 0.00 22 995.4
20220815172911 88 270 1.0 2.0 0.00 0.00 0.00 21 995.4
20220815171911 87 243 1.0 2.0 0.00 0.00 0.00 22 995.4
20220815170011 86 200 0.0 0.0 0.00 0.00 0.00 22 995.1
20220815165010 85 180 1.0 2.0 0.00 0.00 0.00 22 995.1
20220815163110 84 214 0.0 1.0 0.00 0.00 0.00 21 994.8
20220815162112 83 202 0.0 1.0 0.00 0.00 0.00 22 994.8
20220815161112 83 180 2.0 2.0 0.00 0.00 0.00 24 994.8
20220815160211 82 270 0.0 0.0 0.00 0.00 0.00 24 994.8
20220815155211 81 360 1.0 2.0 0.00 0.00 0.00 24 995.5
20220815153209 82 360 0.0 0.0 0.00 0.00 0.00 24 996.5
20220815151209 80 360 0.0 0.0 0.00 0.00 0.00 27 997.2
20220815150209 79 360 0.0 0.0 0.00 0.00 0.00 24 997.6
20220815145212 78 360 0.0 0.0 0.00 0.00 0.00 23 997.2
20220815144213 78 360 0.0 0.0 0.00 0.00 0.00 23 997.2
20220815143309 77 360 0.0 0.0 0.00 0.00 0.00 24 997.2
20220815141410 75 360 0.0 0.0 0.00 0.00 0.00 24 996.9
20220815140413 75 360 0.0 0.0 0.00 0.00 0.00 24 996.9
20220815135511 74 360 0.0 0.0 0.00 0.00 0.00 25 996.7
20220815134610 73 360 0.0 0.0 0.00 0.00 0.00 25 996.5
20220815132610 72 270 0.0 0.0 0.00 0.00 0.00 25 996.3
20220815125610 74 360 1.0 1.0 0.00 0.00 0.00 24 996.2
20220815124611 74 360 0.0 0.0 0.00 0.00 0.00 24 996.2
20220815123612 74 360 0.0 0.0 0.00 0.00 0.00 24 996.2
20220815121610 75 34 2.0 2.0 0.00 0.00 0.00 24 996.2
20220815120610 75 23 1.0 2.0 0.00 0.00 0.00 24 996.2
20220815114612 75 34 1.0 2.0 0.00 0.00 0.00 24 996.2
20220815112710 76 22 2.0 2.0 0.00 0.00 0.00 24 995.8
20220815111709 76 45 3.0 5.0 0.00 0.00 0.00 23 996.2
20220815110711 76 45 4.0 4.0 0.00 0.00 0.00 23 995.8
20220815100811 73 22 1.0 2.0 0.00 0.00 0.00 25 995.5
20220815094910 73 22 0.0 0.0 0.00 0.00 0.00 25 995.8
20220815093011 76 22 0.0 1.0 0.00 0.00 0.00 24 995.5
20220815092911 76 22 1.0 1.0 0.00 0.00 0.00 24 995.5
20220815090909 76 45 2.0 2.0 0.00 0.00 0.00 24 995.5
20220815085910 75 360 0.0 1.0 0.00 0.00 0.00 24 995.5
20220815084009 75 11 3.0 4.0 0.00 0.00 0.00 24 995.5